| time (UTC) | temp F | wind direction | speed MPH | gust MPH | rain 1hr in | rain 24hr in | rain mn in | humidity % | barometer mb |
| 20260506112606 | 65 | 251 | 4.0 | 9.0 | 0.00 | 0.01 | 0.00 | ||
| 20260506112106 | 65 | 294 | 2.0 | 9.0 | 0.00 | 0.01 | 0.00 | ||
| 20260506111606 | 65 | 322 | 2.0 | 12.0 | 0.00 | 0.01 | 0.00 | ||
| 20260506111107 | 65 | 294 | 3.0 | 18.0 | 0.00 | 0.01 | 0.00 | ||
| 20260506110606 | 65 | 312 | 1.0 | 18.0 | 0.00 | 0.01 | 0.00 | ||
| 20260506110106 | 65 | 272 | 2.0 | 8.0 | 0.00 | 0.01 | 0.00 | ||
| 20260506105606 | 65 | 331 | 3.0 | 10.0 | 0.00 | 0.01 | 0.00 | ||
| 20260506105106 | 64 | 313 | 2.0 | 10.0 | 0.00 | 0.02 | 0.00 | ||
| 20260506104605 | 64 | 265 | 3.0 | 10.0 | 0.00 | 0.04 | 0.00 | ||
| 20260506104105 | 64 | 278 | 2.0 | 8.0 | 0.00 | 0.04 | 0.00 | ||
| 20260506103605 | 64 | 237 | 3.0 | 8.0 | 0.00 | 0.04 | 0.00 | ||
| 20260506103105 | 64 | 259 | 2.0 | 7.0 | 0.00 | 0.04 | 0.00 | ||
| 20260506102606 | 64 | 286 | 2.0 | 7.0 | 0.00 | 0.04 | 0.00 | ||
| 20260506101605 | 64 | 266 | 1.0 | 13.0 | 0.00 | 0.04 | 0.00 | ||
| 20260506101105 | 64 | 270 | 3.0 | 13.0 | 0.00 | 0.04 | 0.00 | ||
| 20260506100605 | 64 | 270 | 3.0 | 10.0 | 0.00 | 0.04 | 0.00 | ||
| 20260506092604 | 64 | 311 | 3.0 | 20.0 | 0.00 | 0.04 | 0.00 | ||
| 20260506090604 | 64 | 283 | 3.0 | 10.0 | 0.00 | 0.04 | 0.00 | ||
| 20260506085604 | 64 | 317 | 2.0 | 10.0 | 0.00 | 0.04 | 0.00 | ||
| 20260506084604 | 64 | 269 | 3.0 | 10.0 | 0.00 | 0.04 | 0.00 | ||
| 20260506083105 | 64 | 267 | 2.0 | 8.0 | 0.00 | 0.04 | 0.00 | ||
| 20260506072604 | 66 | 285 | 2.0 | 12.0 | 0.00 | 0.04 | 0.00 | ||
| 20260506070605 | 66 | 232 | 3.0 | 9.0 | 0.00 | 0.04 | 0.00 | ||
| 20260506062104 | 68 | 307 | 3.0 | 9.0 | 0.00 | 0.04 | 0.00 | ||
| 20260506061603 | 67 | 270 | 3.0 | 12.0 | 0.00 | 0.04 | 0.00 | ||
| 20260506050604 | 69 | 277 | 2.0 | 7.0 | 0.00 | 0.04 | 0.00 | ||
| 20260506045104 | 69 | 287 | 3.0 | 13.0 | 0.00 | 0.04 | 0.00 | ||
| 20260506043604 | 69 | 240 | 3.0 | 13.0 | 0.00 | 0.04 | 0.00 | ||
| 20260506043104 | 69 | 347 | 4.0 | 13.0 | 0.00 | 0.04 | 0.00 | ||
| 20260506041604 | 69 | 264 | 1.0 | 8.0 | 0.00 | 0.04 | 0.00 | ||
| 20260506041104 | 70 | 275 | 3.0 | 14.0 | 0.00 | 0.04 | 0.00 | ||
| 20260506040105 | 70 | 280 | 2.0 | 12.0 | 0.00 | 0.04 | 0.00 | ||
| 20260506035604 | 70 | 267 | 4.0 | 13.0 | 0.00 | 0.04 | 0.04 | ||
| 20260506035103 | 70 | 253 | 3.0 | 13.0 | 0.00 | 0.04 | 0.04 | ||
| 20260506033604 | 70 | 248 | 2.0 | 12.0 | 0.00 | 0.04 | 0.04 | ||
| 20260506031603 | 70 | 317 | 2.0 | 5.0 | 0.00 | 0.04 | 0.04 | ||
| 20260506030603 | 70 | 346 | 2.0 | 14.0 | 0.00 | 0.04 | 0.04 | ||
| 20260506030104 | 71 | 304 | 2.0 | 14.0 | 0.00 | 0.04 | 0.04 | ||
| 20260506025104 | 71 | 261 | 2.0 | 12.0 | 0.00 | 0.04 | 0.04 | ||
| 20260506024104 | 71 | 315 | 2.0 | 9.0 | 0.00 | 0.04 | 0.04 | ||
| 20260506023104 | 72 | 283 | 3.0 | 12.0 | 0.00 | 0.04 | 0.04 | ||
| 20260506022605 | 72 | 162 | 3.0 | 12.0 | 0.00 | 0.04 | 0.04 | ||
| 20260506021604 | 73 | 274 | 6.0 | 16.0 | 0.00 | 0.04 | 0.04 | ||
| 20260506020604 | 73 | 285 | 2.0 | 14.0 | 0.00 | 0.04 | 0.04 | ||
| 20260506020104 | 72 | 284 | 4.0 | 13.0 | 0.00 | 0.04 | 0.04 | ||
| 20260506015604 | 72 | 306 | 3.0 | 12.0 | 0.00 | 0.04 | 0.04 | ||
| 20260506013104 | 73 | 253 | 3.0 | 13.0 | 0.00 | 0.04 | 0.04 | ||
| 20260506010604 | 74 | 259 | 5.0 | 12.0 | 0.00 | 0.04 | 0.04 | ||
| 20260506003604 | 73 | 231 | 3.0 | 10.0 | 0.00 | 0.04 | 0.04 | ||
| 20260506003105 | 74 | 281 | 3.0 | 10.0 | 0.00 | 0.04 | 0.04 | ||
| 20260506002604 | 73 | 244 | 2.0 | 6.0 | 0.00 | 0.04 | 0.04 | ||
| 20260506002104 | 73 | 236 | 3.0 | 10.0 | 0.00 | 0.04 | 0.04 | ||
| 20260506001604 | 73 | 269 | 2.0 | 10.0 | 0.00 | 0.04 | 0.04 | ||
| 20260506000604 | 73 | 255 | 1.0 | 7.0 | 0.00 | 0.04 | 0.04 | ||
| 20260506000105 | 73 | 295 | 1.0 | 7.0 | 0.00 | 0.04 | 0.04 | ||
| 20260505231604 | 77 | 272 | 2.0 | 10.0 | 0.00 | 0.04 | 0.04 | ||
| 20260505225604 | 78 | 246 | 2.0 | 10.0 | 0.00 | 0.04 | 0.04 | ||
| 20260505225103 | 78 | 271 | 4.0 | 10.0 | 0.00 | 0.04 | 0.04 | ||
| 20260505224605 | 79 | 286 | 4.0 | 10.0 | 0.00 | 0.04 | 0.04 | ||
| 20260505224104 | 79 | 280 | 2.0 | 16.0 | 0.00 | 0.04 | 0.04 | ||
| 20260505223604 | 79 | 276 | 5.0 | 16.0 | 0.00 | 0.04 | 0.04 | ||
| 20260505223104 | 80 | 279 | 4.0 | 16.0 | 0.00 | 0.04 | 0.04 | ||
| 20260505222104 | 81 | 277 | 8.0 | 23.0 | 0.00 | 0.04 | 0.04 | ||
| 20260505221103 | 80 | 287 | 6.0 | 17.0 | 0.00 | 0.04 | 0.04 | ||
| 20260505220604 | 83 | 284 | 6.0 | 16.0 | 0.00 | 0.04 | 0.04 | ||
| 20260505215604 | 83 | 246 | 6.0 | 14.0 | 0.00 | 0.04 | 0.04 | ||
| 20260505215104 | 83 | 266 | 4.0 | 12.0 | 0.00 | 0.04 | 0.04 | ||
| 20260505214604 | 84 | 279 | 2.0 | 10.0 | 0.00 | 0.04 | 0.04 | ||
| 20260505212103 | 81 | 281 | 5.0 | 17.0 | 0.00 | 0.04 | 0.04 | ||
| 20260505205605 | 81 | 297 | 5.0 | 23.0 | 0.00 | 0.04 | 0.04 | ||
| 20260505205104 | 83 | 279 | 5.0 | 23.0 | 0.00 | 0.04 | 0.04 | ||
| 20260505203604 | 83 | 278 | 6.0 | 13.0 | 0.00 | 0.04 | 0.04 | ||
| 20260505203103 | 84 | 285 | 6.0 | 13.0 | 0.00 | 0.04 | 0.04 | ||
| 20260505202604 | 87 | 296 | 3.0 | 15.0 | 0.00 | 0.04 | 0.04 | ||
| 20260505201604 | 84 | 274 | 5.0 | 25.0 | 0.00 | 0.04 | 0.04 | ||
| 20260505201104 | 84 | 303 | 6.0 | 25.0 | 0.00 | 0.04 | 0.04 | ||
| 20260505200604 | 85 | 262 | 4.0 | 22.0 | 0.00 | 0.04 | 0.04 | ||
| 20260505195604 | 88 | 310 | 5.0 | 15.0 | 0.00 | 0.04 | 0.04 | ||
| 20260505194603 | 87 | 277 | 5.0 | 12.0 | 0.00 | 0.04 | 0.04 | ||
| 20260505194104 | 85 | 274 | 4.0 | 14.0 | 0.00 | 0.04 | 0.04 | ||
| 20260505193604 | 88 | 287 | 6.0 | 18.0 | 0.00 | 0.04 | 0.04 | ||
| 20260505193104 | 87 | 303 | 6.0 | 20.0 | 0.00 | 0.04 | 0.04 | ||
| 20260505192604 | 88 | 286 | 6.0 | 20.0 | 0.00 | 0.04 | 0.04 | ||
| 20260505192104 | 87 | 295 | 4.0 | 18.0 | 0.00 | 0.04 | 0.04 | ||
| 20260505191104 | 83 | 290 | 6.0 | 17.0 | 0.00 | 0.04 | 0.04 | ||
| 20260505185603 | 85 | 285 | 5.0 | 20.0 | 0.00 | 0.04 | 0.04 | ||
| 20260505184604 | 87 | 288 | 5.0 | 16.0 | 0.00 | 0.04 | 0.04 | ||
| 20260505183104 | 84 | 293 | 5.0 | 18.0 | 0.00 | 0.04 | 0.04 | ||
| 20260505182604 | 84 | 267 | 3.0 | 12.0 | 0.00 | 0.04 | 0.04 | ||
| 20260505181604 | 85 | 266 | 5.0 | 18.0 | 0.00 | 0.04 | 0.04 | ||
| 20260505175104 | 84 | 274 | 6.0 | 21.0 | 0.00 | 0.04 | 0.04 | ||
| 20260505173604 | 88 | 288 | 5.0 | 22.0 | 0.01 | 0.04 | 0.04 | ||
| 20260505172604 | 84 | 281 | 7.0 | 23.0 | 0.01 | 0.04 | 0.04 | ||
| 20260505172104 | 84 | 326 | 7.0 | 23.0 | 0.01 | 0.04 | 0.04 | ||
| 20260505171604 | 84 | 296 | 3.0 | 16.0 | 0.01 | 0.04 | 0.04 | ||
| 20260505171104 | 83 | 279 | 5.0 | 16.0 | 0.01 | 0.04 | 0.04 | ||
| 20260505170604 | 84 | 329 | 5.0 | 13.0 | 0.01 | 0.04 | 0.04 | ||
| 20260505165603 | 82 | 231 | 6.0 | 15.0 | 0.01 | 0.04 | 0.04 | ||
| 20260505164604 | 82 | 313 | 6.0 | 13.0 | 0.00 | 0.03 | 0.03 | ||
| 20260505164104 | 82 | 303 | 3.0 | 10.0 | 0.00 | 0.03 | 0.03 | ||
| 20260505162104 | 81 | 309 | 4.0 | 15.0 | 0.00 | 0.03 | 0.03 | ||
| 20260505160604 | 81 | 298 | 4.0 | 17.0 | 0.00 | 0.03 | 0.03 | ||
| 20260505152104 | 79 | 320 | 5.0 | 10.0 | 0.00 | 0.03 | 0.03 | ||
| 20260505151104 | 78 | 301 | 5.0 | 14.0 | 0.00 | 0.03 | 0.03 | ||
| 20260505150604 | 78 | 288 | 6.0 | 14.0 | 0.00 | 0.03 | 0.03 | ||
| 20260505150104 | 77 | 306 | 4.0 | 12.0 | 0.00 | 0.03 | 0.03 | ||
| 20260505140104 | 75 | 290 | 5.0 | 8.0 | 0.00 | 0.03 | 0.03 | ||
| 20260505124604 | 65 | 353 | 2.0 | 3.0 | 0.00 | 0.03 | 0.03 | ||
| 20260505123604 | 64 | 21 | 0.0 | 2.0 | 0.00 | 0.03 | 0.03 | ||
| 20260505120104 | 59 | 234 | 0.0 | 5.0 | 0.00 | 0.03 | 0.03 | ||
| 20260505114603 | 58 | 288 | 2.0 | 7.0 | 0.03 | 0.03 | 0.03 |